Lid_Strength_Index
1 1 -1 -1 -1 -0 -1 -1 -0 -1 -2 -1 -1 -1 -1 -1 -1 -1 -1 -1 -1 -1 -1 -1 -1 -1 -1 -1 -1 -1 -1 -1 -1 -1 -1 -1 -1 -2 -1 -1 -1 -0 -2
-0 -0 -1 -1 -1 -1 -1 0 -0 -1 -1 -2 -1 -1 -1 -1 -1 -1 -1 -1 -1 -1 -2 -1 -1 -1 -1 -1 -1 -1 -1 -1 -1 -2 -2 -1 -1 -1 -1 -1 -1 -0 -1
0 -1 -1 -1 -1 -1 1 -1 0 -1 -2 -1 -1 -2 -2 -2 -1 -1 -1 -1 -1 -1 -1 -1 -1 -1 -1 -1 -1 -1 -1 -1 -1 -1 -1 1 1 -1 -1 -1 -1 -1 -1
3 0 -0 -1 -1 -1 -1 -1 -0 -1 -1 -1 -1 -1 -1 -1 -2 -2 -2 -2 -1 -1 -1 -1 -1 -1 -1 -1 -1 -1 -1 -1 -1 -0 2 2 1 -1 -1 -1 -0 -1 -1
4 4 0 -1 -1 -1 -1 -1 -0 0 -0 -2 -2 -1 -1 -1 -1 -1 -1 -2 -1 -1 -1 -1 -1 -1 -1 -1 -1 -1 -1 -0 -0 1 3 3 2 -0 -0 -0 -0 -0 -0
3 3 3 -1 -1 -1 -1 -0 -1 0 -0 0 1 -1 -1 -0 0 0 0 -0 -1 -1 -1 -1 -1 -1 -1 -1 -1 -1 -1 -0 1 3 2 1 2 -0 -0 0 1 0 -0
5 4 5 2 -1 -2 -1 -1 -1 -1 -1 -0 0 0 0 -0 0 0 1 0 -0 -1 -1 -1 -1 -1 -1 -1 -1 -1 0 1 3 4 4 3 2 -1 1 0 0 0 -0
6 5 4 2 3 1 -1 -1 -1 -1 -1 -1 -1 -0 1 1 1 1 1 0 -0 -1 -1 -1 -1 -1 0 -1 -1 0 1 2 4 4 3 2 0 -0 1 1 0 0 1
6 6 5 4 2 3 2 -1 -1 -1 -1 -1 -1 -1 1 1 1 1 2 0 -1 -1 -1 -1 -0 1 -0 -1 0 1 2 3 5 4 2 3 -0 1 1 1 0 1 2
7 6 6 5 4 3 3 1 -0 -1 -1 -1 -1 -0 1 2 2 2 2 1 1 2 0 0 1 1 -0 0 1 2 3 4 5 4 4 3 0 1 1 0 1 2 1
7 7 6 6 5 3 2 2 0 -0 -1 -1 -0 0 1 2 3 3 3 2 2 2 4 3 3 2 1 2 2 3 4 5 5 5 5 0 1 1 0 0 1 2 2
9 8 6 6 5 4 2 1 1 -0 -0 -0 -0 -0 0 2 3 4 5 5 3 4 4 6 5 4 5 5 5 5 6 6 5 5 4 1 1 1 0 1 2 2 1
9 8 7 6 5 4 3 2 1 -0 1 1 0 0 0 1 2 5 6 7 7 7 7 8 8 8 7 6 7 8 7 6 6 5 4 1 1 1 1 1 1 1 1
9 8 8 7 6 5 4 2 1 -0 1 1 1 0 1 2 3 5 7 8 8 8 8 8 8 7 7 7 7 7 7 8 7 6 5 3 1 1 1 -0 -0 0 1
10 9 8 7 6 5 4 2 1 1 0 1 1 1 2 3 4 4 5 7 8 7 7 8 8 8 8 8 8 8 8 8 8 7 6 4 1 1 -0 -1 -0 0 0
11 10 9 7 6 5 5 2 1 0 0 1 1 2 3 3 4 5 5 6 8 7 7 7 8 8 9 8 9 9 10 10 10 9 8 7 3 1 -0 -0 -1 0 0
12 11 10 8 6 6 5 3 1 -0 -0 0 1 2 3 4 4 5 5 6 5 5 6 7 8 8 9 9 10 11 11 12 12 12 10 9 8 5 2 1 2 1 1
12 12 10 8 7 6 5 3 2 -0 0 0 1 2 3 4 4 5 5 5 5 5 6 7 8 9 10 10 11 12 12 12 13 13 11 10 10 9 5 3 3 3 2
13 12 11 9 8 7 5 3 1 -0 1 1 2 1 2 3 4 5 5 5 5 5 6 7 8 9 10 11 11 12 13 13 13 13 13 13 12 12 11 6 6 6 4
13 12 11 10 9 7 5 3 2 -0 1 1 2 2 2 2 3 4 5 5 6 6 6 7 8 9 10 11 11 12 12 13 13 13 14 13 14 13 13 12 12 11 6
12 12 11 10 9 8 7 5 3 2 2 2 2 2 2 2 2 3 5 6 6 6 6 7 8 10 11 11 11 12 12 12 13 13 13 14 14 14 14 13 13 13 12
13 12 11 11 10 9 7 5 3 2 2 2 2 3 3 3 3 4 4 6 6 6 7 7 8 9 9 10 11 11 13 13 12 13 13 13 15 14 14 13 13 13 13
13 13 12 11 10 10 9 6 4 4 3 4 4 3 3 3 4 4 4 5 6 6 7 7 7 8 10 9 8 10 13 13 13 13 14 14 15 15 15 14 14 13 13
13 12 12 11 11 10 10 10 8 6 7 6 5 5 5 5 5 5 4 5 6 7 7 7 7 7 8 10 9 8 10 11 13 15 14 14 15 15 16 15 15 14 14
12 12 11 11 10 10 10 10 11 10 8 7 7 6 7 6 6 6 5 5 6 7 7 7 7 7 8 8 9 9 9 10 11 12 14 15 14 15 15 16 15 15 14
11 11 10 10 10 9 9 10 10 11 11 11 10 9 8 7 7 7 6 5 6 7 8 8 8 7 8 8 8 9 10 11 11 12 14 15 15 15 15 15 16 16 15